Location: Middlebury
(44.0153°N, 73.1678°W)
Time: 13:20:39
(UTC-04:00)

DIWATA 2B (PO-101) - Pass Details

Date: 19 June 2024
Orbit: 576 x 586 km, 98.1° (Epoch: 19 July)

Event Time Altitude Azimuth Distance (km) Brightness Sun altitude
Rises 02:53:23 0° 111° (ESE) 2,782 ? -17.2°
Reaches altitude 10° 02:57:09 10° 75° (ENE) 1,891 ? -16.9°
Maximum altitude 02:58:12 11° 60° (ENE) 1,837 ? -16.8°
Drops below altitude 10° 02:59:15 10° 45° (NE) 1,895 ? -16.7°
Sets 03:03:02 0° 9° (N) 2,803 ? -16.4°
